Wetterdaten: Dienstag, 05.02.2008
Datum Zeit Temp. I. Temp. A. Feuchte A. Luftdruck Regen Wind
05.02.2008 00:02 21,8 C 4,1 C 83 % 1011 hPa 0,0 l/m 6,5 km/h (2 Bft)
05.02.2008 00:05 21,8 C 6,1 C 83 % 1011 hPa 0,0 l/m 7,0 km/h (2 Bft)
05.02.2008 00:08 21,8 C 4,1 C 83 % 1011 hPa 0,0 l/m 7,8 km/h (2 Bft)
05.02.2008 00:11 21,8 C 4,1 C 83 % 1011 hPa 0,0 l/m 6,1 km/h (2 Bft)
05.02.2008 00:14 21,7 C 4,1 C 83 % 1011 hPa 0,0 l/m 6,1 km/h (2 Bft)
05.02.2008 00:17 21,7 C 4,1 C 83 % 1011 hPa 0,0 l/m 5,1 km/h (1 Bft)
05.02.2008 00:20 21,8 C 4,0 C 83 % 1011 hPa 0,0 l/m 5,2 km/h (1 Bft)
05.02.2008 00:23 21,7 C 4,0 C 83 % 1011 hPa 0,0 l/m 4,2 km/h (1 Bft)
05.02.2008 00:26 21,7 C 4,0 C 84 % 1011 hPa 0,0 l/m 2,5 km/h (1 Bft)
05.02.2008 00:29 21,7 C 3,9 C 84 % 1011 hPa 0,0 l/m 4,1 km/h (1 Bft)
05.02.2008 00:32 21,7 C 3,9 C 84 % 1011 hPa 0,0 l/m 3,1 km/h (1 Bft)
05.02.2008 00:35 21,7 C 3,9 C 85 % 1011 hPa 0,3 l/m 4,8 km/h (1 Bft)
05.02.2008 00:38 21,7 C 3,9 C 85 % 1011 hPa 0,0 l/m 6,8 km/h (2 Bft)
05.02.2008 00:41 21,7 C 3,8 C 86 % 1011 hPa 0,0 l/m 3,0 km/h (1 Bft)
05.02.2008 00:44 21,7 C 3,8 C 87 % 1011 hPa 0,0 l/m 4,0 km/h (1 Bft)
05.02.2008 00:47 21,7 C 3,7 C 87 % 1011 hPa 0,0 l/m 8,2 km/h (2 Bft)
05.02.2008 00:50 21,7 C 3,6 C 87 % 1011 hPa 0,0 l/m 5,1 km/h (1 Bft)
05.02.2008 00:53 21,7 C 3,6 C 87 % 1011 hPa 0,0 l/m 4,3 km/h (1 Bft)
05.02.2008 00:56 21,7 C 3,6 C 87 % 1011 hPa 0,0 l/m 6,7 km/h (2 Bft)
05.02.2008 00:59 21,7 C 3,5 C 89 % 1011 hPa 0,0 l/m 8,1 km/h (2 Bft)
05.02.2008 01:02 21,7 C 3,5 C 89 % 1012 hPa 0,0 l/m 6,1 km/h (2 Bft)
05.02.2008 01:05 21,7 C 3,5 C 89 % 1012 hPa 0,0 l/m 5,8 km/h (2 Bft)
05.02.2008 01:08 21,7 C 3,5 C 90 % 1012 hPa 0,0 l/m 8,3 km/h (2 Bft)
05.02.2008 01:11 21,7 C 3,4 C 90 % 1012 hPa 0,0 l/m 6,7 km/h (2 Bft)
05.02.2008 01:14 21,7 C 3,4 C 91 % 1012 hPa 0,0 l/m 6,6 km/h (2 Bft)
05.02.2008 01:17 21,6 C 3,4 C 91 % 1012 hPa 0,0 l/m 7,0 km/h (2 Bft)
05.02.2008 01:20 21,6 C 3,4 C 91 % 1012 hPa 0,0 l/m 8,5 km/h (2 Bft)
05.02.2008 01:23 21,6 C 3,4 C 91 % 1012 hPa 0,0 l/m 4,6 km/h (1 Bft)
05.02.2008 01:26 21,6 C 3,4 C 91 % 1012 hPa 0,0 l/m 4,8 km/h (1 Bft)
05.02.2008 01:29 21,6 C 3,4 C 91 % 1012 hPa 0,0 l/m 5,4 km/h (1 Bft)
05.02.2008 01:32 21,6 C 3,4 C 91 % 1012 hPa 0,0 l/m 5,3 km/h (1 Bft)
05.02.2008 01:35 21,6 C 3,4 C 91 % 1012 hPa 0,0 l/m 5,3 km/h (1 Bft)
05.02.2008 01:38 21,6 C 3,4 C 91 % 1012 hPa 0,0 l/m 5,9 km/h (2 Bft)
05.02.2008 01:41 21,6 C 3,4 C 91 % 1012 hPa 0,0 l/m 7,2 km/h (2 Bft)
05.02.2008 01:44 21,6 C 3,4 C 91 % 1012 hPa 0,0 l/m 6,7 km/h (2 Bft)
05.02.2008 01:47 21,6 C 3,4 C 91 % 1012 hPa 0,0 l/m 7,8 km/h (2 Bft)
05.02.2008 01:50 21,6 C 3,4 C 91 % 1012 hPa 0,0 l/m 7,4 km/h (2 Bft)
05.02.2008 01:53 21,6 C 3,4 C 91 % 1012 hPa 0,0 l/m 9,4 km/h (2 Bft)
05.02.2008 01:56 21,6 C 3,4 C 91 % 1012 hPa 0,0 l/m 9,4 km/h (2 Bft)
05.02.2008 01:59 21,6 C 3,4 C 91 % 1012 hPa 0,0 l/m 10,8 km/h (2 Bft)
05.02.2008 02:02 21,6 C 3,3 C 91 % 1013 hPa 0,0 l/m 9,0 km/h (2 Bft)
05.02.2008 02:05 21,6 C 3,4 C 91 % 1012 hPa 0,0 l/m 7,9 km/h (2 Bft)
05.02.2008 02:08 21,6 C 3,4 C 91 % 1012 hPa 0,0 l/m 11,4 km/h (2 Bft)
05.02.2008 02:11 21,6 C 3,3 C 91 % 1012 hPa 0,0 l/m 9,4 km/h (2 Bft)
05.02.2008 02:14 21,6 C 3,3 C 91 % 1012 hPa 0,0 l/m 9,3 km/h (2 Bft)
05.02.2008 02:17 21,6 C 3,3 C 91 % 1012 hPa 0,0 l/m 7,9 km/h (2 Bft)
05.02.2008 02:20 21,6 C 3,3 C 91 % 1013 hPa 0,0 l/m 7,9 km/h (2 Bft)
05.02.2008 02:23 21,6 C 3,3 C 91 % 1013 hPa 0,0 l/m 8,5 km/h (2 Bft)
05.02.2008 02:26 21,6 C 3,2 C 91 % 1013 hPa 0,0 l/m 11,6 km/h (2 Bft)
05.02.2008 02:29 21,6 C 3,2 C 91 % 1013 hPa 0,0 l/m 10,4 km/h (2 Bft)
05.02.2008 02:32 21,6 C 3,2 C 91 % 1013 hPa 0,0 l/m 7,8 km/h (2 Bft)
05.02.2008 02:35 21,5 C 3,3 C 91 % 1013 hPa 0,0 l/m 11,1 km/h (2 Bft)
05.02.2008 02:38 21,5 C 3,3 C 91 % 1013 hPa 0,0 l/m 9,0 km/h (2 Bft)
05.02.2008 02:41 21,5 C 3,3 C 91 % 1013 hPa 0,0 l/m 9,4 km/h (2 Bft)
05.02.2008 02:44 21,5 C 3,3 C 91 % 1013 hPa 0,0 l/m 8,1 km/h (2 Bft)
05.02.2008 02:47 21,5 C 3,3 C 91 % 1013 hPa 0,0 l/m 8,0 km/h (2 Bft)
05.02.2008 02:50 21,5 C 3,3 C 91 % 1013 hPa 0,0 l/m 8,3 km/h (2 Bft)
05.02.2008 02:53 21,5 C 3,3 C 91 % 1013 hPa 0,0 l/m 12,5 km/h (3 Bft)
05.02.2008 02:56 21,5 C 3,3 C 91 % 1013 hPa 0,0 l/m 11,0 km/h (2 Bft)
05.02.2008 02:59 21,5 C 3,3 C 91 % 1013 hPa 0,0 l/m 10,8 km/h (2 Bft)
05.02.2008 03:02 21,5 C 3,3 C 91 % 1013 hPa 0,0 l/m 9,6 km/h (2 Bft)
05.02.2008 03:05 21,5 C 3,3 C 91 % 1013 hPa 0,0 l/m 9,4 km/h (2 Bft)
05.02.2008 03:08 21,5 C 3,2 C 91 % 1013 hPa 0,0 l/m 7,8 km/h (2 Bft)
05.02.2008 03:11 21,5 C 3,2 C 92 % 1013 hPa 0,0 l/m 10,8 km/h (2 Bft)
05.02.2008 03:14 21,5 C 3,1 C 92 % 1013 hPa 0,0 l/m 12,3 km/h (3 Bft)
05.02.2008 03:17 21,5 C 3,1 C 92 % 1013 hPa 0,0 l/m 8,7 km/h (2 Bft)
05.02.2008 03:20 21,5 C 3,1 C 92 % 1013 hPa 0,0 l/m 6,8 km/h (2 Bft)
05.02.2008 03:23 21,5 C 3,2 C 92 % 1013 hPa 0,0 l/m 8,1 km/h (2 Bft)
05.02.2008 03:26 21,5 C 3,2 C 92 % 1013 hPa 0,0 l/m 8,3 km/h (2 Bft)
05.02.2008 03:29 21,5 C 3,2 C 92 % 1013 hPa 0,0 l/m 5,7 km/h (1 Bft)
05.02.2008 03:32 21,5 C 3,2 C 92 % 1013 hPa 0,0 l/m 5,4 km/h (1 Bft)
05.02.2008 03:35 21,5 C 3,1 C 92 % 1013 hPa 0,0 l/m 4,3 km/h (1 Bft)
05.02.2008 03:38 21,5 C 3,1 C 92 % 1013 hPa 0,0 l/m 4,3 km/h (1 Bft)
05.02.2008 03:41 21,5 C 3,1 C 92 % 1013 hPa 0,0 l/m 3,4 km/h (1 Bft)
05.02.2008 03:44 21,5 C 3,1 C 92 % 1013 hPa 0,0 l/m 4,2 km/h (1 Bft)
05.02.2008 03:47 21,5 C 3,1 C 92 % 1013 hPa 0,0 l/m 3,1 km/h (1 Bft)
05.02.2008 03:50 21,4 C 3,1 C 92 % 1013 hPa 0,0 l/m 3,4 km/h (1 Bft)
05.02.2008 03:53 21,5 C 3,2 C 91 % 1013 hPa 0,0 l/m 2,7 km/h (1 Bft)
05.02.2008 03:56 21,4 C 3,2 C 91 % 1013 hPa 0,0 l/m 0,6 km/h (0 Bft)
05.02.2008 03:59 21,4 C 3,3 C 91 % 1014 hPa 0,0 l/m 0,1 km/h (0 Bft)
05.02.2008 04:02 21,4 C 3,3 C 91 % 1014 hPa 0,0 l/m 0,0 km/h (0 Bft)
05.02.2008 04:05 21,5 C 3,3 C 91 % 1014 hPa 0,0 l/m 0,0 km/h (0 Bft)
05.02.2008 04:08 21,5 C 3,3 C 91 % 1014 hPa 0,0 l/m 0,0 km/h (0 Bft)
05.02.2008 04:11 21,4 C 3,3 C 91 % 1014 hPa 0,0 l/m 0,0 km/h (0 Bft)
05.02.2008 04:14 21,4 C 3,3 C 91 % 1014 hPa 0,0 l/m 0,0 km/h (0 Bft)
05.02.2008 04:17 21,4 C 3,3 C 91 % 1014 hPa 0,0 l/m 0,0 km/h (0 Bft)
05.02.2008 04:20 21,4 C 3,3 C 91 % 1014 hPa 0,0 l/m 0,0 km/h (0 Bft)
05.02.2008 04:23 21,4 C 3,3 C 91 % 1014 hPa 0,0 l/m 0,0 km/h (0 Bft)
05.02.2008 04:26 21,4 C 3,3 C 91 % 1014 hPa 0,0 l/m 0,0 km/h (0 Bft)
05.02.2008 04:29 21,4 C 3,3 C 91 % 1014 hPa 0,0 l/m 1,0 km/h (0 Bft)
05.02.2008 04:32 21,4 C 3,3 C 91 % 1013 hPa 0,0 l/m 3,7 km/h (1 Bft)
05.02.2008 04:35 21,4 C 3,4 C 91 % 1014 hPa 0,0 l/m 3,3 km/h (1 Bft)
05.02.2008 04:38 21,4 C 3,3 C 91 % 1014 hPa 0,0 l/m 4,8 km/h (1 Bft)
05.02.2008 04:41 21,4 C 3,4 C 91 % 1014 hPa 0,0 l/m 4,5 km/h (1 Bft)
05.02.2008 04:44 21,4 C 3,4 C 91 % 1014 hPa 0,3 l/m 6,7 km/h (2 Bft)
05.02.2008 04:47 21,4 C 3,4 C 91 % 1014 hPa 0,0 l/m 3,8 km/h (1 Bft)
05.02.2008 04:50 21,4 C 3,4 C 91 % 1014 hPa 0,0 l/m 0,9 km/h (0 Bft)
05.02.2008 04:53 21,4 C 3,4 C 91 % 1014 hPa 0,0 l/m 4,8 km/h (1 Bft)
05.02.2008 04:56 21,4 C 3,4 C 91 % 1014 hPa 0,0 l/m 5,2 km/h (1 Bft)
05.02.2008 04:59 21,4 C 3,4 C 91 % 1014 hPa 0,0 l/m 0,4 km/h (0 Bft)
05.02.2008 05:02 21,4 C 3,4 C 91 % 1014 hPa 0,0 l/m 0,4 km/h (0 Bft)
05.02.2008 05:05 21,4 C 3,3 C 91 % 1014 hPa 0,0 l/m 0,0 km/h (0 Bft)
05.02.2008 05:08 21,4 C 3,3 C 91 % 1014 hPa 0,0 l/m 0,0 km/h (0 Bft)
05.02.2008 05:11 21,4 C 3,3 C 91 % 1014 hPa 0,0 l/m 0,0 km/h (0 Bft)
05.02.2008 05:14 21,4 C 3,3 C 91 % 1014 hPa 0,0 l/m 0,0 km/h (0 Bft)
05.02.2008 05:17 21,5 C 3,3 C 91 % 1014 hPa 0,0 l/m 0,0 km/h (0 Bft)
05.02.2008 05:20 21,5 C 3,3 C 91 % 1014 hPa 0,0 l/m 0,0 km/h (0 Bft)
05.02.2008 05:23 21,6 C 3,3 C 91 % 1014 hPa 0,0 l/m 0,0 km/h (0 Bft)
05.02.2008 05:26 21,6 C 3,3 C 91 % 1014 hPa 0,0 l/m 0,0 km/h (0 Bft)
05.02.2008 05:29 21,6 C 3,3 C 91 % 1014 hPa 0,0 l/m 0,0 km/h (0 Bft)
05.02.2008 05:33 21,6 C 3,3 C 91 % 1014 hPa 0,0 l/m 0,0 km/h (0 Bft)
05.02.2008 05:36 21,7 C 3,3 C 91 % 1014 hPa 0,0 l/m 0,0 km/h (0 Bft)
05.02.2008 05:39 21,7 C 3,3 C 91 % 1014 hPa 0,0 l/m 0,0 km/h (0 Bft)
05.02.2008 05:42 21,7 C 3,3 C 91 % 1014 hPa 0,0 l/m 0,0 km/h (0 Bft)
05.02.2008 05:45 21,7 C 3,3 C 91 % 1014 hPa 0,0 l/m 0,0 km/h (0 Bft)
05.02.2008 05:48 21,7 C 3,3 C 91 % 1014 hPa 0,0 l/m 0,0 km/h (0 Bft)
05.02.2008 05:51 21,7 C 3,3 C 91 % 1014 hPa 0,0 l/m 0,0 km/h (0 Bft)
05.02.2008 05:54 21,7 C 3,3 C 91 % 1014 hPa 0,0 l/m 0,0 km/h (0 Bft)
05.02.2008 05:57 21,8 C 3,3 C 91 % 1014 hPa 0,0 l/m 0,0 km/h (0 Bft)
05.02.2008 05:59 21,8 C 3,3 C 91 % 1014 hPa 0,0 l/m 0,0 km/h (0 Bft)
05.02.2008 06:02 21,7 C 3,3 C 91 % 1014 hPa 0,0 l/m 0,0 km/h (0 Bft)
05.02.2008 06:05 21,8 C 3,3 C 91 % 1014 hPa 0,0 l/m 0,0 km/h (0 Bft)
05.02.2008 06:08 21,8 C 3,3 C 91 % 1014 hPa 0,0 l/m 0,0 km/h (0 Bft)
05.02.2008 06:11 21,8 C 3,3 C 91 % 1014 hPa 0,0 l/m 0,0 km/h (0 Bft)
05.02.2008 06:14 21,8 C 3,3 C 91 % 1014 hPa 0,0 l/m 0,0 km/h (0 Bft)
05.02.2008 06:17 21,8 C 3,3 C 91 % 1014 hPa 0,0 l/m 0,0 km/h (0 Bft)
05.02.2008 06:20 21,8 C 3,3 C 91 % 1014 hPa 0,0 l/m 0,0 km/h (0 Bft)
05.02.2008 06:23 21,8 C 3,3 C 91 % 1014 hPa 0,0 l/m 0,0 km/h (0 Bft)
05.02.2008 06:26 21,8 C 3,3 C 91 % 1014 hPa 0,0 l/m 0,0 km/h (0 Bft)
05.02.2008 06:29 21,8 C 3,2 C 91 % 1014 hPa 0,0 l/m 0,0 km/h (0 Bft)
05.02.2008 06:32 21,8 C 3,2 C 91 % 1015 hPa 0,0 l/m 0,0 km/h (0 Bft)
05.02.2008 06:35 21,8 C 3,2 C 91 % 1015 hPa 0,0 l/m 0,0 km/h (0 Bft)
05.02.2008 06:38 21,8 C 3,2 C 91 % 1015 hPa 0,0 l/m 0,0 km/h (0 Bft)
05.02.2008 06:41 21,8 C 3,2 C 91 % 1015 hPa 0,0 l/m 0,0 km/h (0 Bft)
05.02.2008 06:44 21,8 C 3,2 C 91 % 1015 hPa 0,0 l/m 0,0 km/h (0 Bft)
05.02.2008 06:47 21,8 C 3,2 C 91 % 1015 hPa 0,0 l/m 0,0 km/h (0 Bft)
05.02.2008 06:50 21,8 C 3,3 C 91 % 1015 hPa 0,0 l/m 0,1 km/h (0 Bft)
05.02.2008 06:53 21,8 C 3,3 C 91 % 1015 hPa 0,0 l/m 0,0 km/h (0 Bft)
05.02.2008 06:56 21,8 C 3,3 C 91 % 1015 hPa 0,0 l/m 0,0 km/h (0 Bft)
05.02.2008 06:59 21,8 C 3,3 C 91 % 1015 hPa 0,0 l/m 0,0 km/h (0 Bft)
05.02.2008 07:02 21,8 C 3,3 C 91 % 1015 hPa 0,0 l/m 0,0 km/h (0 Bft)
05.02.2008 07:05 21,8 C 3,3 C 91 % 1015 hPa 0,0 l/m 0,0 km/h (0 Bft)
05.02.2008 07:08 21,8 C 3,3 C 91 % 1015 hPa 0,0 l/m 0,0 km/h (0 Bft)
05.02.2008 07:11 21,8 C 3,3 C 91 % 1015 hPa 0,0 l/m 0,0 km/h (0 Bft)
05.02.2008 07:14 21,8 C 3,3 C 91 % 1015 hPa 0,0 l/m 0,0 km/h (0 Bft)
05.02.2008 07:17 21,8 C 3,2 C 91 % 1015 hPa 0,0 l/m 0,0 km/h (0 Bft)
05.02.2008 07:20 21,8 C 3,2 C 91 % 1015 hPa 0,0 l/m 0,0 km/h (0 Bft)
05.02.2008 07:23 21,8 C 3,2 C 91 % 1015 hPa 0,0 l/m 0,0 km/h (0 Bft)
05.02.2008 07:26 21,7 C 3,2 C 91 % 1015 hPa 0,0 l/m 0,0 km/h (0 Bft)
05.02.2008 07:29 21,7 C 3,3 C 91 % 1015 hPa 0,0 l/m 0,0 km/h (0 Bft)
05.02.2008 07:32 21,7 C 3,2 C 91 % 1015 hPa 0,0 l/m 0,0 km/h (0 Bft)
05.02.2008 07:35 21,7 C 3,3 C 91 % 1015 hPa 0,0 l/m 0,1 km/h (0 Bft)
05.02.2008 07:38 21,7 C 3,2 C 91 % 1015 hPa 0,0 l/m 0,0 km/h (0 Bft)
05.02.2008 07:41 21,7 C 3,2 C 91 % 1015 hPa 0,0 l/m 0,0 km/h (0 Bft)
05.02.2008 07:44 21,6 C 3,3 C 91 % 1015 hPa 0,0 l/m 0,0 km/h (0 Bft)
05.02.2008 07:47 21,6 C 3,3 C 91 % 1016 hPa 0,0 l/m 0,1 km/h (0 Bft)
05.02.2008 07:50 21,6 C 3,3 C 91 % 1016 hPa 0,0 l/m 0,3 km/h (0 Bft)
05.02.2008 07:53 21,6 C 3,3 C 91 % 1016 hPa 0,0 l/m 0,2 km/h (0 Bft)
05.02.2008 07:56 21,6 C 3,3 C 91 % 1016 hPa 0,0 l/m 0,2 km/h (0 Bft)
05.02.2008 07:59 21,6 C 3,4 C 91 % 1016 hPa 0,0 l/m 0,0 km/h (0 Bft)
05.02.2008 08:02 21,6 C 3,3 C 91 % 1016 hPa 0,0 l/m 0,0 km/h (0 Bft)
05.02.2008 08:05 21,6 C 3,3 C 91 % 1016 hPa 0,0 l/m 0,0 km/h (0 Bft)
05.02.2008 08:08 21,6 C 3,2 C 91 % 1016 hPa 0,0 l/m 0,1 km/h (0 Bft)
05.02.2008 08:11 21,6 C 3,3 C 91 % 1016 hPa 0,0 l/m 0,2 km/h (0 Bft)
05.02.2008 08:14 21,6 C 3,3 C 91 % 1016 hPa 0,0 l/m 0,0 km/h (0 Bft)
05.02.2008 08:17 21,6 C 3,2 C 91 % 1016 hPa 0,0 l/m 0,1 km/h (0 Bft)
05.02.2008 08:20 21,6 C 3,2 C 91 % 1016 hPa 0,0 l/m 0,0 km/h (0 Bft)
05.02.2008 08:23 21,6 C 3,3 C 91 % 1016 hPa 0,0 l/m 0,0 km/h (0 Bft)
05.02.2008 08:26 21,5 C 3,2 C 91 % 1016 hPa 0,0 l/m 0,1 km/h (0 Bft)
05.02.2008 08:29 21,5 C 3,2 C 91 % 1016 hPa 0,0 l/m 0,1 km/h (0 Bft)
05.02.2008 08:32 21,5 C 3,3 C 91 % 1016 hPa 0,0 l/m 0,0 km/h (0 Bft)
05.02.2008 08:35 21,5 C 3,3 C 91 % 1016 hPa 0,0 l/m 0,1 km/h (0 Bft)
05.02.2008 08:38 21,5 C 3,2 C 91 % 1016 hPa 0,0 l/m 0,0 km/h (0 Bft)
05.02.2008 08:41 21,5 C 3,3 C 91 % 1016 hPa 0,0 l/m 0,0 km/h (0 Bft)
05.02.2008 08:44 21,5 C 3,3 C 91 % 1016 hPa 0,0 l/m 0,0 km/h (0 Bft)
05.02.2008 08:47 21,5 C 3,3 C 91 % 1016 hPa 0,0 l/m 0,2 km/h (0 Bft)
05.02.2008 08:50 21,5 C 3,4 C 91 % 1016 hPa 0,0 l/m 0,0 km/h (0 Bft)
05.02.2008 08:53 21,5 C 3,3 C 91 % 1016 hPa 0,0 l/m 0,0 km/h (0 Bft)
05.02.2008 08:56 21,5 C 3,4 C 91 % 1016 hPa 0,0 l/m 0,0 km/h (0 Bft)
05.02.2008 08:59 21,4 C 3,3 C 91 % 1016 hPa 0,0 l/m 0,0 km/h (0 Bft)
05.02.2008 09:02 21,4 C 3,3 C 91 % 1016 hPa 0,0 l/m 0,0 km/h (0 Bft)
05.02.2008 09:05 21,4 C 3,4 C 91 % 1016 hPa 0,0 l/m 0,0 km/h (0 Bft)
05.02.2008 09:08 21,4 C 3,4 C 91 % 1016 hPa 0,0 l/m 0,0 km/h (0 Bft)
05.02.2008 09:11 21,4 C 3,5 C 91 % 1016 hPa 0,0 l/m 0,0 km/h (0 Bft)
05.02.2008 09:14 21,4 C 3,5 C 91 % 1016 hPa 0,0 l/m 0,0 km/h (0 Bft)
05.02.2008 09:17 21,4 C 3,7 C 91 % 1016 hPa 0,0 l/m 0,0 km/h (0 Bft)
05.02.2008 09:20 21,4 C 3,7 C 91 % 1016 hPa 0,0 l/m 0,0 km/h (0 Bft)
05.02.2008 09:23 21,4 C 3,8 C 91 % 1016 hPa 0,0 l/m 0,1 km/h (0 Bft)
05.02.2008 09:26 21,4 C 3,9 C 91 % 1016 hPa 0,0 l/m 0,0 km/h (0 Bft)
05.02.2008 09:29 21,4 C 3,9 C 91 % 1016 hPa 0,0 l/m 0,0 km/h (0 Bft)
05.02.2008 09:32 21,4 C 4,0 C 90 % 1016 hPa 0,0 l/m 0,1 km/h (0 Bft)
05.02.2008 09:35 21,4 C 4,0 C 90 % 1016 hPa 0,0 l/m 0,0 km/h (0 Bft)
05.02.2008 09:38 21,4 C 4,0 C 90 % 1016 hPa 0,0 l/m 0,0 km/h (0 Bft)
05.02.2008 09:41 21,4 C 4,0 C 90 % 1016 hPa 0,0 l/m 0,0 km/h (0 Bft)
05.02.2008 09:44 21,4 C 4,0 C 90 % 1016 hPa 0,0 l/m 0,0 km/h (0 Bft)
05.02.2008 09:47 21,4 C 4,2 C 90 % 1016 hPa 0,0 l/m 0,0 km/h (0 Bft)
05.02.2008 09:50 21,4 C 4,2 C 90 % 1016 hPa 0,0 l/m 0,1 km/h (0 Bft)
05.02.2008 09:53 21,4 C 4,3 C 90 % 1016 hPa 0,0 l/m 0,1 km/h (0 Bft)
05.02.2008 09:56 21,4 C 4,2 C 89 % 1016 hPa 0,0 l/m 0,3 km/h (0 Bft)
05.02.2008 09:59 21,4 C 4,3 C 89 % 1016 hPa 0,0 l/m 3,7 km/h (1 Bft)
05.02.2008 10:02 21,4 C 4,3 C 89 % 1016 hPa 0,0 l/m 0,0 km/h (0 Bft)
05.02.2008 10:05 21,4 C 4,3 C 88 % 1016 hPa 0,0 l/m 0,0 km/h (0 Bft)
05.02.2008 10:08 21,4 C 4,4 C 89 % 1016 hPa 0,0 l/m 0,0 km/h (0 Bft)
05.02.2008 10:11 21,3 C 4,5 C 89 % 1016 hPa 0,0 l/m 0,0 km/h (0 Bft)
05.02.2008 10:14 21,3 C 4,5 C 88 % 1016 hPa 0,0 l/m 0,0 km/h (0 Bft)
05.02.2008 10:17 21,3 C 4,5 C 88 % 1016 hPa 0,0 l/m 0,0 km/h (0 Bft)
05.02.2008 10:20 21,3 C 4,4 C 88 % 1016 hPa 0,0 l/m 0,0 km/h (0 Bft)
05.02.2008 10:23 21,3 C 4,5 C 88 % 1016 hPa 0,0 l/m 0,0 km/h (0 Bft)
05.02.2008 10:26 21,3 C 4,5 C 88 % 1016 hPa 0,0 l/m 0,0 km/h (0 Bft)
05.02.2008 10:29 21,3 C 4,5 C 88 % 1017 hPa 0,0 l/m 0,0 km/h (0 Bft)
05.02.2008 10:32 21,3 C 4,6 C 88 % 1017 hPa 0,0 l/m 0,0 km/h (0 Bft)
05.02.2008 10:35 21,3 C 4,7 C 88 % 1016 hPa 0,0 l/m 0,0 km/h (0 Bft)
05.02.2008 10:38 21,3 C 4,7 C 88 % 1016 hPa 0,0 l/m 0,1 km/h (0 Bft)
05.02.2008 10:41 21,3 C 4,9 C 88 % 1016 hPa 0,0 l/m 0,8 km/h (0 Bft)
05.02.2008 10:44 21,3 C 4,9 C 87 % 1016 hPa 0,0 l/m 0,3 km/h (0 Bft)
05.02.2008 10:47 21,4 C 4,9 C 87 % 1016 hPa 0,0 l/m 0,1 km/h (0 Bft)
05.02.2008 10:50 21,4 C 5,1 C 87 % 1016 hPa 0,0 l/m 0,0 km/h (0 Bft)
05.02.2008 10:53 21,4 C 4,9 C 87 % 1016 hPa 0,0 l/m 0,0 km/h (0 Bft)
05.02.2008 10:56 21,4 C 4,9 C 87 % 1016 hPa 0,0 l/m 2,1 km/h (1 Bft)
05.02.2008 10:59 21,4 C 4,9 C 86 % 1016 hPa 0,0 l/m 0,0 km/h (0 Bft)
05.02.2008 11:02 21,4 C 4,9 C 86 % 1017 hPa 0,0 l/m 0,0 km/h (0 Bft)
05.02.2008 11:05 21,4 C 4,9 C 86 % 1017 hPa 0,0 l/m 0,1 km/h (0 Bft)
05.02.2008 11:08 21,5 C 5,1 C 86 % 1017 hPa 0,0 l/m 0,0 km/h (0 Bft)
05.02.2008 11:11 21,4 C 5,2 C 86 % 1017 hPa 0,0 l/m 0,4 km/h (0 Bft)
05.02.2008 11:14 21,5 C 5,3 C 86 % 1017 hPa 0,0 l/m 0,0 km/h (0 Bft)
05.02.2008 11:17 21,5 C 5,3 C 86 % 1017 hPa 0,0 l/m 0,7 km/h (0 Bft)
05.02.2008 11:20 21,5 C 5,3 C 85 % 1017 hPa 0,0 l/m 0,0 km/h (0 Bft)
05.02.2008 11:23 21,5 C 5,5 C 85 % 1017 hPa 0,0 l/m 0,9 km/h (0 Bft)
05.02.2008 11:26 21,5 C 5,5 C 85 % 1017 hPa 0,0 l/m 1,2 km/h (1 Bft)
05.02.2008 11:29 21,6 C 5,7 C 85 % 1017 hPa 0,0 l/m 4,5 km/h (1 Bft)
05.02.2008 11:32 21,6 C 5,8 C 83 % 1017 hPa 0,0 l/m 2,7 km/h (1 Bft)
05.02.2008 11:35 21,6 C 5,9 C 82 % 1017 hPa 0,0 l/m 1,2 km/h (1 Bft)
05.02.2008 11:38 21,6 C 6,0 C 83 % 1017 hPa 0,0 l/m 3,6 km/h (1 Bft)
05.02.2008 11:41 21,8 C 6,0 C 82 % 1016 hPa 0,0 l/m 0,9 km/h (0 Bft)
05.02.2008 11:44 21,7 C 6,1 C 82 % 1016 hPa 0,0 l/m 0,7 km/h (0 Bft)
05.02.2008 11:47 21,8 C 6,2 C 82 % 1016 hPa 0,0 l/m 0,4 km/h (0 Bft)
05.02.2008 11:50 21,8 C 6,2 C 82 % 1016 hPa 0,0 l/m 0,7 km/h (0 Bft)
05.02.2008 11:53 21,8 C 6,2 C 82 % 1016 hPa 0,0 l/m 6,7 km/h (2 Bft)
05.02.2008 11:56 21,8 C 6,2 C 82 % 1016 hPa 0,0 l/m 0,8 km/h (0 Bft)
05.02.2008 11:59 21,8 C 6,2 C 82 % 1016 hPa 0,0 l/m 3,5 km/h (1 Bft)
05.02.2008 12:30 21,8 C 6,2 C 82 % 1016 hPa 0,0 l/m 3,5 km/h (1 Bft)
05.02.2008 12:33 21,8 C 6,2 C 82 % 1016 hPa 0,0 l/m 5,1 km/h (1 Bft)
05.02.2008 12:36 21,8 C 6,8 C 80 % 1016 hPa 0,0 l/m 4,8 km/h (1 Bft)
05.02.2008 12:39 21,8 C 6,8 C 78 % 1016 hPa 0,0 l/m 3,1 km/h (1 Bft)
05.02.2008 12:42 21,8 C 7,0 C 79 % 1016 hPa 0,0 l/m 0,0 km/h (0 Bft)
05.02.2008 12:45 21,8 C 7,1 C 80 % 1016 hPa 0,0 l/m 0,0 km/h (0 Bft)
05.02.2008 12:48 21,8 C 7,1 C 80 % 1016 hPa 0,0 l/m 1,3 km/h (1 Bft)
05.02.2008 12:51 21,8 C 7,1 C 80 % 1016 hPa 0,0 l/m 0,3 km/h (0 Bft)
05.02.2008 12:54 21,8 C 7,2 C 78 % 1016 hPa 0,0 l/m 2,8 km/h (1 Bft)
05.02.2008 12:57 21,9 C 7,2 C 78 % 1016 hPa 0,0 l/m 10,4 km/h (2 Bft)
05.02.2008 13:00 21,9 C 7,3 C 78 % 1016 hPa 0,0 l/m 5,7 km/h (1 Bft)
05.02.2008 13:03 22,0 C 7,5 C 77 % 1016 hPa 0,0 l/m 5,7 km/h (1 Bft)
05.02.2008 13:06 22,0 C 7,5 C 76 % 1016 hPa 0,0 l/m 1,8 km/h (1 Bft)
05.02.2008 13:09 22,1 C 7,5 C 76 % 1016 hPa 0,0 l/m 7,4 km/h (2 Bft)
05.02.2008 13:12 22,1 C 7,7 C 78 % 1016 hPa 0,0 l/m 1,0 km/h (0 Bft)
05.02.2008 13:15 22,1 C 7,8 C 77 % 1016 hPa 0,0 l/m 6,1 km/h (2 Bft)
05.02.2008 13:18 22,2 C 7,8 C 77 % 1016 hPa 0,0 l/m 2,8 km/h (1 Bft)
05.02.2008 13:21 22,2 C 8,0 C 75 % 1016 hPa 0,0 l/m 7,6 km/h (2 Bft)
05.02.2008 13:24 22,2 C 8,0 C 76 % 1016 hPa 0,0 l/m 7,6 km/h (2 Bft)
05.02.2008 13:27 22,2 C 8,1 C 76 % 1016 hPa 0,0 l/m 8,4 km/h (2 Bft)
05.02.2008 13:30 22,2 C 8,1 C 75 % 1016 hPa 0,0 l/m 6,3 km/h (2 Bft)
05.02.2008 13:33 22,3 C 8,0 C 75 % 1016 hPa 0,0 l/m 9,0 km/h (2 Bft)
05.02.2008 13:36 22,4 C 8,1 C 75 % 1016 hPa 0,0 l/m 9,6 km/h (2 Bft)
05.02.2008 13:39 22,5 C 8,1 C 75 % 1016 hPa 0,0 l/m 11,9 km/h (2 Bft)
05.02.2008 13:42 22,6 C 8,1 C 74 % 1016 hPa 0,0 l/m 10,4 km/h (2 Bft)
05.02.2008 13:45 22,6 C 8,1 C 74 % 1016 hPa 0,0 l/m 13,5 km/h (3 Bft)
05.02.2008 13:48 22,7 C 8,0 C 75 % 1016 hPa 0,0 l/m 6,8 km/h (2 Bft)
05.02.2008 13:51 22,7 C 7,9 C 73 % 1016 hPa 0,0 l/m 10,1 km/h (2 Bft)
05.02.2008 13:54 22,7 C 7,8 C 75 % 1015 hPa 0,0 l/m 8,9 km/h (2 Bft)
05.02.2008 13:57 22,6 C 7,7 C 75 % 1015 hPa 0,0 l/m 8,7 km/h (2 Bft)
05.02.2008 14:00 22,7 C 7,6 C 75 % 1015 hPa 0,0 l/m 7,8 km/h (2 Bft)
05.02.2008 14:03 22,6 C 7,6 C 76 % 1015 hPa 0,0 l/m 11,3 km/h (2 Bft)
05.02.2008 14:06 22,6 C 7,6 C 76 % 1015 hPa 0,0 l/m 8,1 km/h (2 Bft)
05.02.2008 14:09 22,7 C 7,7 C 76 % 1015 hPa 0,0 l/m 8,8 km/h (2 Bft)
05.02.2008 14:12 22,6 C 7,7 C 76 % 1015 hPa 0,0 l/m 10,1 km/h (2 Bft)
05.02.2008 14:15 22,5 C 8,1 C 76 % 1015 hPa 0,0 l/m 12,4 km/h (3 Bft)
05.02.2008 14:18 22,5 C 8,2 C 75 % 1015 hPa 0,0 l/m 9,8 km/h (2 Bft)
05.02.2008 14:21 22,5 C 8,2 C 74 % 1015 hPa 0,0 l/m 10,1 km/h (2 Bft)
05.02.2008 14:24 22,5 C 8,2 C 74 % 1015 hPa 0,0 l/m 9,2 km/h (2 Bft)
05.02.2008 14:27 22,5 C 8,2 C 74 % 1015 hPa 0,0 l/m 11,6 km/h (2 Bft)
05.02.2008 14:30 22,5 C 8,2 C 74 % 1015 hPa 0,0 l/m 7,8 km/h (2 Bft)
05.02.2008 14:33 22,5 C 8,2 C 74 % 1015 hPa 0,0 l/m 7,3 km/h (2 Bft)
05.02.2008 14:36 22,4 C 8,2 C 74 % 1015 hPa 0,0 l/m 5,8 km/h (2 Bft)
05.02.2008 14:39 22,5 C 8,2 C 74 % 1015 hPa 0,0 l/m 7,8 km/h (2 Bft)
05.02.2008 14:42 22,5 C 7,7 C 74 % 1015 hPa 0,0 l/m 5,7 km/h (1 Bft)
05.02.2008 14:45 22,4 C 7,6 C 76 % 1015 hPa 0,0 l/m 8,6 km/h (2 Bft)
05.02.2008 14:48 22,4 C 7,9 C 75 % 1015 hPa 0,0 l/m 1,8 km/h (1 Bft)
05.02.2008 14:51 22,4 C 8,0 C 75 % 1015 hPa 0,0 l/m 11,4 km/h (2 Bft)
05.02.2008 14:54 22,4 C 8,0 C 75 % 1015 hPa 0,0 l/m 10,6 km/h (2 Bft)
05.02.2008 14:57 22,4 C 8,0 C 75 % 1015 hPa 0,0 l/m 9,6 km/h (2 Bft)
05.02.2008 15:00 22,5 C 8,3 C 75 % 1015 hPa 0,0 l/m 7,1 km/h (2 Bft)
05.02.2008 15:03 22,5 C 8,3 C 74 % 1015 hPa 0,0 l/m 0,7 km/h (0 Bft)
05.02.2008 15:06 22,5 C 8,2 C 72 % 1015 hPa 0,0 l/m 2,4 km/h (1 Bft)
05.02.2008 15:09 22,4 C 8,1 C 72 % 1015 hPa 0,0 l/m 0,5 km/h (0 Bft)
05.02.2008 15:12 22,4 C 8,0 C 72 % 1015 hPa 0,0 l/m 1,1 km/h (1 Bft)
05.02.2008 15:15 22,4 C 8,0 C 72 % 1015 hPa 0,0 l/m 7,1 km/h (2 Bft)
05.02.2008 15:18 22,3 C 8,0 C 72 % 1015 hPa 0,0 l/m 4,8 km/h (1 Bft)
05.02.2008 15:22 22,3 C 8,0 C 72 % 1015 hPa 0,0 l/m 4,2 km/h (1 Bft)
05.02.2008 15:25 22,4 C 8,1 C 72 % 1015 hPa 0,0 l/m 4,2 km/h (1 Bft)
05.02.2008 15:28 22,3 C 8,2 C 70 % 1015 hPa 0,0 l/m 10,6 km/h (2 Bft)
05.02.2008 15:31 22,3 C 8,2 C 72 % 1015 hPa 0,0 l/m 9,0 km/h (2 Bft)
05.02.2008 15:34 22,3 C 8,1 C 71 % 1015 hPa 0,0 l/m 7,9 km/h (2 Bft)
05.02.2008 15:37 22,3 C 8,0 C 71 % 1015 hPa 0,0 l/m 6,5 km/h (2 Bft)
05.02.2008 15:40 22,3 C 8,0 C 72 % 1015 hPa 0,0 l/m 10,8 km/h (2 Bft)
05.02.2008 15:43 22,2 C 8,0 C 72 % 1015 hPa 0,0 l/m 6,6 km/h (2 Bft)
05.02.2008 15:46 22,2 C 8,0 C 72 % 1015 hPa 0,0 l/m 3,5 km/h (1 Bft)
05.02.2008 15:49 22,2 C 8,0 C 72 % 1015 hPa 0,0 l/m 3,5 km/h (1 Bft)
05.02.2008 15:52 22,2 C 7,9 C 73 % 1015 hPa 0,0 l/m 5,5 km/h (1 Bft)
05.02.2008 15:55 22,0 C 8,0 C 74 % 1015 hPa 0,0 l/m 5,4 km/h (1 Bft)
05.02.2008 15:57 21,9 C 8,0 C 73 % 1015 hPa 0,0 l/m 3,7 km/h (1 Bft)
05.02.2008 16:00 21,8 C 7,9 C 73 % 1015 hPa 0,0 l/m 8,1 km/h (2 Bft)
05.02.2008 16:03 21,8 C 7,9 C 72 % 1015 hPa 0,0 l/m 7,5 km/h (2 Bft)
05.02.2008 16:06 21,5 C 8,0 C 73 % 1015 hPa 0,0 l/m 6,7 km/h (2 Bft)
05.02.2008 16:09 21,5 C 7,9 C 72 % 1015 hPa 0,0 l/m 4,4 km/h (1 Bft)
05.02.2008 16:12 21,6 C 7,9 C 72 % 1015 hPa 0,0 l/m 1,5 km/h (1 Bft)
05.02.2008 16:15 21,6 C 7,8 C 72 % 1015 hPa 0,0 l/m 8,6 km/h (2 Bft)
05.02.2008 16:18 21,7 C 7,7 C 71 % 1015 hPa 0,0 l/m 0,5 km/h (0 Bft)
05.02.2008 16:21 21,8 C 7,7 C 71 % 1015 hPa 0,0 l/m 4,6 km/h (1 Bft)
05.02.2008 16:24 21,9 C 7,7 C 71 % 1015 hPa 0,0 l/m 0,6 km/h (0 Bft)
05.02.2008 16:27 22,0 C 7,6 C 72 % 1015 hPa 0,0 l/m 0,6 km/h (0 Bft)
05.02.2008 16:30 22,1 C 7,6 C 72 % 1015 hPa 0,0 l/m 0,3 km/h (0 Bft)
05.02.2008 16:33 22,1 C 7,5 C 72 % 1015 hPa 0,0 l/m 0,1 km/h (0 Bft)
05.02.2008 16:36 22,1 C 7,4 C 72 % 1015 hPa 0,0 l/m 2,8 km/h (1 Bft)
05.02.2008 16:39 22,2 C 7,4 C 72 % 1015 hPa 0,0 l/m 4,4 km/h (1 Bft)
05.02.2008 16:42 22,2 C 7,4 C 72 % 1015 hPa 0,0 l/m 2,5 km/h (1 Bft)
05.02.2008 16:45 22,3 C 7,2 C 73 % 1015 hPa 0,0 l/m 0,3 km/h (0 Bft)
05.02.2008 16:48 22,3 C 7,2 C 73 % 1015 hPa 0,0 l/m 0,1 km/h (0 Bft)
05.02.2008 16:51 22,4 C 7,2 C 73 % 1015 hPa 0,0 l/m 3,7 km/h (1 Bft)
05.02.2008 16:54 22,3 C 7,2 C 73 % 1015 hPa 0,0 l/m 0,9 km/h (0 Bft)
05.02.2008 16:57 22,4 C 7,2 C 73 % 1015 hPa 0,0 l/m 0,3 km/h (0 Bft)
05.02.2008 17:00 22,4 C 7,2 C 73 % 1015 hPa 0,0 l/m 4,3 km/h (1 Bft)
05.02.2008 17:03 22,4 C 7,1 C 72 % 1015 hPa 0,0 l/m 6,1 km/h (2 Bft)
05.02.2008 17:06 22,4 C 7,0 C 73 % 1015 hPa 0,0 l/m 4,9 km/h (1 Bft)
05.02.2008 17:09 22,4 C 7,0 C 73 % 1015 hPa 0,0 l/m 3,4 km/h (1 Bft)
05.02.2008 17:12 22,4 C 7,0 C 73 % 1015 hPa 0,0 l/m 2,6 km/h (1 Bft)
05.02.2008 17:15 22,5 C 6,9 C 73 % 1015 hPa 0,0 l/m 1,0 km/h (0 Bft)
05.02.2008 17:18 22,5 C 6,8 C 73 % 1015 hPa 0,0 l/m 5,6 km/h (1 Bft)
05.02.2008 17:21 22,5 C 6,8 C 73 % 1015 hPa 0,0 l/m 9,8 km/h (2 Bft)
05.02.2008 17:24 22,4 C 6,8 C 73 % 1015 hPa 0,0 l/m 5,0 km/h (1 Bft)
05.02.2008 17:27 22,4 C 6,7 C 73 % 1015 hPa 0,0 l/m 0,1 km/h (0 Bft)
05.02.2008 17:30 22,4 C 6,7 C 73 % 1015 hPa 0,0 l/m 2,4 km/h (1 Bft)
05.02.2008 17:33 22,4 C 6,6 C 73 % 1015 hPa 0,0 l/m 6,1 km/h (2 Bft)
05.02.2008 17:36 22,4 C 6,6 C 73 % 1015 hPa 0,0 l/m 2,8 km/h (1 Bft)
05.02.2008 17:39 22,4 C 6,6 C 74 % 1015 hPa 0,0 l/m 3,7 km/h (1 Bft)
05.02.2008 17:42 22,4 C 6,5 C 75 % 1015 hPa 0,0 l/m 2,8 km/h (1 Bft)
05.02.2008 17:45 22,3 C 6,4 C 75 % 1015 hPa 0,0 l/m 5,0 km/h (1 Bft)
05.02.2008 17:48 22,3 C 6,3 C 75 % 1015 hPa 0,0 l/m 6,6 km/h (2 Bft)
05.02.2008 17:51 22,3 C 6,3 C 76 % 1015 hPa 0,0 l/m 4,5 km/h (1 Bft)
05.02.2008 17:54 22,3 C 6,3 C 76 % 1015 hPa 0,0 l/m 5,7 km/h (1 Bft)
05.02.2008 17:57 22,2 C 6,2 C 76 % 1015 hPa 0,0 l/m 5,0 km/h (1 Bft)
05.02.2008 18:00 22,2 C 6,2 C 77 % 1015 hPa 0,0 l/m 4,3 km/h (1 Bft)
05.02.2008 18:03 22,2 C 6,1 C 77 % 1016 hPa 0,0 l/m 3,0 km/h (1 Bft)
05.02.2008 18:06 22,2 C 6,0 C 77 % 1016 hPa 0,0 l/m 3,0 km/h (1 Bft)
05.02.2008 18:09 22,2 C 6,0 C 77 % 1016 hPa 0,0 l/m 3,0 km/h (1 Bft)
05.02.2008 18:12 22,2 C 6,0 C 77 % 1015 hPa 0,0 l/m 3,3 km/h (1 Bft)
05.02.2008 18:15 22,2 C 5,9 C 77 % 1016 hPa 0,0 l/m 4,6 km/h (1 Bft)
05.02.2008 18:18 22,2 C 5,9 C 77 % 1016 hPa 0,0 l/m 7,0 km/h (2 Bft)
05.02.2008 18:21 22,2 C 5,9 C 77 % 1016 hPa 0,0 l/m 7,4 km/h (2 Bft)
05.02.2008 18:24 22,2 C 5,8 C 77 % 1016 hPa 0,0 l/m 6,3 km/h (2 Bft)
05.02.2008 18:27 22,1 C 5,7 C 78 % 1015 hPa 0,0 l/m 4,5 km/h (1 Bft)
05.02.2008 18:30 22,1 C 5,6 C 78 % 1015 hPa 0,0 l/m 7,2 km/h (2 Bft)
05.02.2008 18:33 22,1 C 5,6 C 78 % 1015 hPa 0,0 l/m 6,1 km/h (2 Bft)
05.02.2008 18:36 22,2 C 5,6 C 79 % 1015 hPa 0,0 l/m 5,0 km/h (1 Bft)
05.02.2008 18:39 22,2 C 5,5 C 80 % 1015 hPa 0,0 l/m 6,1 km/h (2 Bft)
05.02.2008 18:42 22,3 C 5,5 C 80 % 1016 hPa 0,0 l/m 8,7 km/h (2 Bft)
05.02.2008 18:45 22,3 C 5,5 C 80 % 1016 hPa 0,0 l/m 7,0 km/h (2 Bft)
05.02.2008 18:48 22,4 C 5,4 C 81 % 1016 hPa 0,0 l/m 10,4 km/h (2 Bft)
05.02.2008 18:51 22,4 C 5,3 C 81 % 1016 hPa 0,0 l/m 12,5 km/h (3 Bft)
05.02.2008 18:54 22,4 C 5,3 C 81 % 1016 hPa 0,0 l/m 9,4 km/h (2 Bft)
05.02.2008 18:57 22,4 C 5,3 C 81 % 1015 hPa 0,0 l/m 10,2 km/h (2 Bft)
05.02.2008 19:00 22,4 C 5,3 C 81 % 1015 hPa 0,0 l/m 7,8 km/h (2 Bft)
05.02.2008 19:03 22,4 C 5,3 C 81 % 1015 hPa 0,0 l/m 9,5 km/h (2 Bft)
05.02.2008 19:06 22,4 C 5,2 C 82 % 1015 hPa 0,0 l/m 9,6 km/h (2 Bft)
05.02.2008 19:09 22,4 C 5,2 C 82 % 1015 hPa 0,0 l/m 5,9 km/h (2 Bft)
05.02.2008 19:12 22,4 C 5,1 C 82 % 1015 hPa 0,0 l/m 13,5 km/h (3 Bft)
05.02.2008 19:15 22,4 C 5,1 C 82 % 1015 hPa 0,0 l/m 8,5 km/h (2 Bft)
05.02.2008 19:18 22,4 C 5,1 C 82 % 1015 hPa 0,0 l/m 8,5 km/h (2 Bft)
05.02.2008 19:21 22,4 C 4,9 C 82 % 1015 hPa 0,0 l/m 7,3 km/h (2 Bft)
05.02.2008 19:24 22,4 C 4,9 C 82 % 1015 hPa 0,0 l/m 7,0 km/h (2 Bft)
05.02.2008 19:27 22,4 C 4,9 C 82 % 1015 hPa 0,0 l/m 5,9 km/h (2 Bft)
05.02.2008 19:30 22,4 C 4,9 C 82 % 1015 hPa 0,0 l/m 5,0 km/h (1 Bft)
05.02.2008 19:33 22,4 C 4,9 C 82 % 1015 hPa 0,0 l/m 5,2 km/h (1 Bft)
05.02.2008 19:36 22,4 C 4,9 C 82 % 1015 hPa 0,0 l/m 4,6 km/h (1 Bft)
05.02.2008 19:39 22,4 C 4,9 C 82 % 1015 hPa 0,0 l/m 5,0 km/h (1 Bft)
05.02.2008 19:42 22,4 C 4,9 C 83 % 1015 hPa 0,0 l/m 5,0 km/h (1 Bft)
05.02.2008 19:45 22,4 C 4,9 C 83 % 1015 hPa 0,0 l/m 5,1 km/h (1 Bft)
05.02.2008 19:48 22,4 C 4,9 C 84 % 1015 hPa 0,0 l/m 5,7 km/h (1 Bft)
05.02.2008 19:51 22,4 C 4,9 C 83 % 1015 hPa 0,0 l/m 8,6 km/h (2 Bft)
05.02.2008 19:54 22,4 C 4,9 C 84 % 1015 hPa 0,0 l/m 6,9 km/h (2 Bft)
05.02.2008 19:57 22,4 C 4,9 C 84 % 1015 hPa 0,0 l/m 7,0 km/h (2 Bft)
05.02.2008 20:00 22,4 C 4,9 C 84 % 1015 hPa 0,0 l/m 2,3 km/h (1 Bft)
05.02.2008 20:03 22,4 C 4,9 C 84 % 1016 hPa 0,0 l/m 4,3 km/h (1 Bft)
05.02.2008 20:06 22,4 C 4,9 C 84 % 1016 hPa 0,0 l/m 4,6 km/h (1 Bft)
05.02.2008 20:09 22,4 C 4,9 C 84 % 1016 hPa 0,0 l/m 6,6 km/h (2 Bft)
05.02.2008 20:12 22,4 C 4,9 C 84 % 1016 hPa 0,0 l/m 3,6 km/h (1 Bft)
05.02.2008 20:15 22,4 C 4,9 C 84 % 1016 hPa 0,0 l/m 5,6 km/h (1 Bft)
05.02.2008 20:18 22,4 C 4,9 C 84 % 1016 hPa 0,0 l/m 5,6 km/h (1 Bft)
05.02.2008 20:21 22,4 C 4,9 C 84 % 1015 hPa 0,0 l/m 8,0 km/h (2 Bft)
05.02.2008 20:24 22,4 C 4,9 C 84 % 1015 hPa 0,0 l/m 9,6 km/h (2 Bft)
05.02.2008 20:27 22,4 C 4,9 C 84 % 1015 hPa 0,0 l/m 10,0 km/h (2 Bft)
05.02.2008 20:30 22,4 C 4,9 C 84 % 1015 hPa 0,0 l/m 7,2 km/h (2 Bft)
05.02.2008 20:33 22,4 C 4,9 C 84 % 1015 hPa 0,0 l/m 6,8 km/h (2 Bft)
05.02.2008 20:36 22,4 C 4,8 C 85 % 1015 hPa 0,0 l/m 5,6 km/h (1 Bft)
05.02.2008 20:39 22,4 C 4,8 C 85 % 1015 hPa 0,0 l/m 10,3 km/h (2 Bft)
05.02.2008 20:42 22,4 C 4,8 C 85 % 1015 hPa 0,0 l/m 6,8 km/h (2 Bft)
05.02.2008 20:45 22,4 C 4,9 C 85 % 1015 hPa 0,0 l/m 10,9 km/h (2 Bft)
05.02.2008 20:48 22,4 C 4,9 C 85 % 1015 hPa 0,0 l/m 7,2 km/h (2 Bft)
05.02.2008 20:51 22,4 C 4,8 C 84 % 1015 hPa 0,0 l/m 8,7 km/h (2 Bft)
05.02.2008 20:54 22,4 C 4,9 C 84 % 1015 hPa 0,0 l/m 5,0 km/h (1 Bft)
05.02.2008 20:57 22,4 C 4,9 C 84 % 1015 hPa 0,0 l/m 7,9 km/h (2 Bft)
05.02.2008 21:00 22,4 C 4,9 C 84 % 1015 hPa 0,0 l/m 10,7 km/h (2 Bft)
05.02.2008 21:03 22,5 C 4,9 C 84 % 1015 hPa 0,0 l/m 10,1 km/h (2 Bft)
05.02.2008 21:06 22,5 C 4,9 C 84 % 1015 hPa 0,0 l/m 15,1 km/h (3 Bft)
05.02.2008 21:09 22,5 C 4,9 C 84 % 1015 hPa 0,0 l/m 11,1 km/h (2 Bft)
05.02.2008 21:12 22,5 C 4,9 C 84 % 1015 hPa 0,0 l/m 9,1 km/h (2 Bft)
05.02.2008 21:15 22,4 C 4,9 C 84 % 1015 hPa 0,0 l/m 9,0 km/h (2 Bft)
05.02.2008 21:18 22,4 C 4,9 C 84 % 1015 hPa 0,0 l/m 9,3 km/h (2 Bft)
05.02.2008 21:21 22,5 C 4,9 C 84 % 1015 hPa 0,0 l/m 7,0 km/h (2 Bft)
05.02.2008 21:24 22,4 C 4,9 C 84 % 1015 hPa 0,0 l/m 9,4 km/h (2 Bft)
05.02.2008 21:27 22,4 C 4,9 C 84 % 1015 hPa 0,0 l/m 6,3 km/h (2 Bft)
05.02.2008 21:30 22,4 C 4,9 C 84 % 1015 hPa 0,0 l/m 5,7 km/h (1 Bft)
05.02.2008 21:33 22,4 C 4,9 C 84 % 1015 hPa 0,0 l/m 7,4 km/h (2 Bft)
05.02.2008 21:36 22,4 C 4,9 C 84 % 1015 hPa 0,0 l/m 7,5 km/h (2 Bft)
05.02.2008 21:39 22,4 C 4,9 C 84 % 1015 hPa 0,0 l/m 7,7 km/h (2 Bft)
05.02.2008 21:42 22,4 C 4,9 C 84 % 1015 hPa 0,0 l/m 8,9 km/h (2 Bft)
05.02.2008 21:45 22,4 C 4,9 C 84 % 1015 hPa 0,0 l/m 9,1 km/h (2 Bft)
05.02.2008 21:48 22,4 C 4,9 C 84 % 1015 hPa 0,0 l/m 10,3 km/h (2 Bft)
05.02.2008 21:51 22,4 C 4,9 C 84 % 1015 hPa 0,0 l/m 3,9 km/h (1 Bft)
05.02.2008 21:54 22,4 C 4,9 C 84 % 1015 hPa 0,0 l/m 7,0 km/h (2 Bft)
05.02.2008 21:57 22,4 C 5,1 C 84 % 1015 hPa 0,0 l/m 6,3 km/h (2 Bft)
05.02.2008 22:00 22,4 C 5,1 C 84 % 1015 hPa 0,0 l/m 7,4 km/h (2 Bft)
05.02.2008 22:03 22,4 C 5,1 C 84 % 1015 hPa 0,0 l/m 5,2 km/h (1 Bft)
05.02.2008 22:06 22,4 C 5,1 C 84 % 1015 hPa 0,0 l/m 0,9 km/h (0 Bft)
05.02.2008 22:09 22,4 C 5,1 C 84 % 1015 hPa 0,0 l/m 9,7 km/h (2 Bft)
05.02.2008 22:12 22,3 C 5,1 C 84 % 1015 hPa 0,0 l/m 2,8 km/h (1 Bft)
05.02.2008 22:15 22,3 C 5,1 C 84 % 1015 hPa 0,0 l/m 5,3 km/h (1 Bft)
05.02.2008 22:18 22,3 C 5,2 C 85 % 1015 hPa 0,0 l/m 0,7 km/h (0 Bft)
05.02.2008 22:21 22,3 C 5,1 C 84 % 1016 hPa 0,0 l/m 3,7 km/h (1 Bft)
05.02.2008 22:24 22,3 C 5,1 C 84 % 1016 hPa 0,0 l/m 2,9 km/h (1 Bft)
05.02.2008 22:27 22,3 C 5,1 C 84 % 1016 hPa 0,0 l/m 2,9 km/h (1 Bft)
05.02.2008 22:30 22,2 C 4,9 C 85 % 1015 hPa 0,0 l/m 2,9 km/h (1 Bft)
05.02.2008 22:33 22,2 C 4,9 C 86 % 1015 hPa 0,0 l/m 4,9 km/h (1 Bft)
05.02.2008 22:36 22,2 C 4,9 C 86 % 1015 hPa 0,0 l/m 0,1 km/h (0 Bft)
05.02.2008 22:39 22,2 C 4,8 C 86 % 1015 hPa 0,3 l/m 5,0 km/h (1 Bft)
05.02.2008 22:42 22,2 C 4,8 C 87 % 1016 hPa 0,0 l/m 3,4 km/h (1 Bft)
05.02.2008 22:46 22,1 C 4,7 C 87 % 1016 hPa 0,0 l/m 0,7 km/h (0 Bft)
05.02.2008 22:49 22,1 C 4,7 C 87 % 1016 hPa 0,0 l/m 0,2 km/h (0 Bft)
05.02.2008 22:52 22,1 C 4,7 C 87 % 1016 hPa 0,0 l/m 0,0 km/h (0 Bft)
05.02.2008 22:55 22,1 C 4,7 C 88 % 1016 hPa 0,0 l/m 0,0 km/h (0 Bft)
05.02.2008 22:58 22,1 C 4,6 C 87 % 1016 hPa 0,0 l/m 0,0 km/h (0 Bft)
05.02.2008 23:01 22,0 C 4,6 C 88 % 1016 hPa 0,0 l/m 2,1 km/h (1 Bft)
05.02.2008 23:04 22,0 C 4,6 C 88 % 1015 hPa 0,0 l/m 4,5 km/h (1 Bft)
05.02.2008 23:07 22,1 C 4,6 C 88 % 1016 hPa 0,0 l/m 5,2 km/h (1 Bft)
05.02.2008 23:10 22,0 C 4,6 C 89 % 1016 hPa 0,0 l/m 3,0 km/h (1 Bft)
05.02.2008 23:13 22,0 C 4,6 C 89 % 1016 hPa 0,3 l/m 4,6 km/h (1 Bft)
05.02.2008 23:16 22,0 C 4,6 C 89 % 1016 hPa 0,0 l/m 6,4 km/h (2 Bft)
05.02.2008 23:19 22,0 C 4,6 C 89 % 1016 hPa 0,0 l/m 2,4 km/h (1 Bft)
05.02.2008 23:21 22,0 C 4,6 C 89 % 1016 hPa 0,0 l/m 4,2 km/h (1 Bft)
05.02.2008 23:24 22,0 C 4,6 C 89 % 1016 hPa 0,0 l/m 4,6 km/h (1 Bft)
05.02.2008 23:27 22,0 C 4,6 C 89 % 1015 hPa 0,0 l/m 3,7 km/h (1 Bft)
05.02.2008 23:30 22,0 C 4,6 C 89 % 1015 hPa 0,0 l/m 4,3 km/h (1 Bft)
05.02.2008 23:33 22,0 C 4,6 C 89 % 1015 hPa 0,0 l/m 4,5 km/h (1 Bft)
05.02.2008 23:36 22,0 C 4,7 C 89 % 1015 hPa 0,0 l/m 5,5 km/h (1 Bft)
05.02.2008 23:39 22,0 C 4,6 C 89 % 1015 hPa 0,0 l/m 5,3 km/h (1 Bft)
05.02.2008 23:42 22,0 C 4,7 C 89 % 1015 hPa 0,0 l/m 5,2 km/h (1 Bft)
05.02.2008 23:45 22,0 C 4,7 C 89 % 1015 hPa 0,0 l/m 3,9 km/h (1 Bft)
05.02.2008 23:48 21,9 C 4,7 C 89 % 1015 hPa 0,0 l/m 1,3 km/h (1 Bft)
05.02.2008 23:51 21,9 C 4,6 C 89 % 1015 hPa 0,0 l/m 3,3 km/h (1 Bft)
05.02.2008 23:54 21,9 C 4,6 C 89 % 1015 hPa 0,0 l/m 2,7 km/h (1 Bft)
05.02.2008 23:57 21,9 C 4,6 C 89 % 1015 hPa 0,0 l/m 2,7 km/h (1 Bft)
_ Min-Zeit 10:11 03:14 15:28 00:02 - 04:02
Minimum _ 21,3 C 3,1 C 70 % 1011 hPa - 0,0 km/h (0 Bft)
_ Max-Zeit 13:48 15:00 03:11 10:29 00:35 21:06
Maximum _ 22,7 C 8,3 C 92 % 1017 hPa 0,3 l/m 15,1 km/h
O (3 Bft)
Durchschnitt _ 21,9 C 5,0 C 85 % 1015 hPa #1,4 l/m 4,1 km/h (1 Bft)